Volver al catálogo

DELTA 1 DEB

ActivoSSO
NORAD 21284·DEBRIS·🇺🇸 United States

Lanzado Jun 12, 1975 desde Vandenberg Space Force Base

Loading…

Próximos Pases (próximas 24 horas)

TLE

ActualizadoSource: Space-Track

Época: Sep 14, 2026, 04:29 UTC

1 21284U 75052V   26257.18708198  .00000036  00000-0  16098-3 0  9996
2 21284  99.8284 331.9329 0077771 141.0512 246.1919 13.31385798717434

Sigue DELTA 1 DEB en tiempo real con AllMySat

Download on the App Store